Prince Rupert Airport
CYPR : now visible

Airfield :











YOU CAN JOIN US ON...

 
LOGIN :

Register | Disclaimer

   EN    FR    IT 

 









Legend :    VFR   Marginal VFR   IFR   Intensive IFR   Very Intensive IFR
Visi :
Ceiling :
>= 8 km
>= 3000ft
5 to 8 km
1000 to 3000 ft
1500m to 5 km
500 to 1000 ft
800 to 1500m
200 to 500 ft
< 800m
< 200 ft
Symbols :   Thunderstorms  Fog  Heavy snow  Heavy precipitations  Wind > 20 kt






- Airport Elevation : 116 ft
- IATA code : YPR


CYPR - Prince Rupert

CURRENT METAR :
  • 100600Z AUTO 06005KT 9SM CLR 01/00 A3024 RMK SLP243

EXPIRED METARs :
  • 100500Z AUTO 05003KT 9SM CLR 01/00 A3023 RMK SLP241
  • 100400Z AUTO 35003KT 9SM CLR 03/01 A3022 RMK SLP237

TAF TAF CYPR
Valid from the 10 at 07:00 until the 10 at 19:00 UTC


100638Z 1007/1019 05005KT P6SM SKC
BECMG 1017/1019 32010KT RMK FCST BASED ON AUTO OBS. NXT FCST BY 101300Z



MET'MAP, your aeronautical weather chart ! - Copyright ORBIFLY December 2007 - Disclaimer

ORBIFLY MET'MAP TEAM :

Programming & Development : Alexandra Zaïnal
Concept & original design : Baudouin d'Aumeries
Assistance for programming : Marc-Olivier Méhu
Technical & hardware support : Manuel Goepfert

Contact : metmap@orbifly.com




SOURCES & CREDITS :

   NOAA       Earth
Advisory